Simultaneous Nadir Overpasses (SNOs) Predictions

Prediction of SNOs between GOES-14 and NPP Satellite Orbit:

Table of predicted SNOs for the next 14.0 days since TLE Epoch: 2/18/2023
Index Date Time (GOES-14) GOES-14 Lat,Lon NPP Lat,Lon Distance(km) Time Diff (sec)
1 02/18/2023 08:32:01 0.04,-108.08 -0.30,-106.66 162.68 80
2 02/19/2023 20:53:56 -0.05,-108.13 -0.92,-111.95 435.62 80
3 02/20/2023 20:37:52 -0.04,-108.12 0.12,-107.42 79.93 80
4 02/23/2023 08:40:54 0.04,-108.02 0.08,-108.14 13.28 80
5 02/25/2023 20:41:25 -0.05,-108.06 -0.24,-108.90 95.96 80
6 02/26/2023 20:25:20 -0.04,-108.05 0.81,-104.37 419.78 80
7 02/28/2023 08:47:06 0.05,-107.97 0.42,-109.62 188.27 80
8 03/01/2023 08:25:41 0.05,-107.95 -0.57,-105.08 326.88 80
9 03/02/2023 20:47:36 -0.06,-107.99 -0.62,-110.37 272.12 80
10 03/03/2023 20:31:32 -0.06,-107.98 0.44,-105.85 243.67 80
